Weather Roundup
Issued by NWS

Home | Current Version | Previous Version | Text Only | Print | Product List | Glossary On
Versions: 1 2 3 4 5 6 7 8 9 10 11 12 13 14 15 16 17 18 19 20 21 22 23 24 25 26 27 28 29 30 31 32 33 34 35 36 37 38 39 40 41 42 43 44 45 46 47 48 49 50
000
NZUS93 KARX 210159
HRRWXR

CURRENT HOURLY OBSERVATIONS ACROSS
MUCH OF THE UPPER MISSISSIPPI VALLEY
NATIONAL WEATHER SERVICE LA CROSSE WI
900 PM CDT WED SEP 20 2017


...SOUTHEAST MINNESOTA...


CITY           SKY/WX    TMP DP  RH WIND       PRES   REMARKS
ROCHESTER      CLEAR     63  54  72 NW5       29.90R
ROCHESTER/MAYO FAIR      66  54  65 CALM      29.89S
WINONA         CLEAR     63  59  88 CALM      29.88R
AUSTIN         CLEAR     61  54  77 CALM      29.89S
ALBERT LEA     CLEAR     63  57  82 CALM      29.90R
DODGE CENTER   CLEAR     57  52  82 CALM      29.90R
PRESTON        CLEAR     62  55  78 NW3       29.89S
OWATONNA       CLEAR     55  52  88 CALM      29.90R
FARIBAULT      CLEAR     55  54  94 CALM      29.91R
$$

...ELSEWHERE IN MINNESOTA...


CITY           SKY/WX    TMP DP  RH WIND       PRES   REMARKS
MINNEAPOLIS    CLEAR     66  52  60 NW5       29.89R
INTNL FALLS    CLEAR     48  43  82 CALM      29.86R
DULUTH         CLEAR     57  47  69 NW6       29.89R
RED WING       CLEAR     59  54  82 N3        29.88R
REDWOOD FALLS  CLEAR     63  48  58 CALM      29.90R
MANKATO        CLEAR     60  51  72 N5        29.90R
WORTHINGTON    CLEAR     56  49  77 CALM      29.92R
FAIRMONT       CLEAR     59  53  80 CALM      29.90R
$$

...SOUTHWEST WISCONSIN...


CITY           SKY/WX    TMP DP  RH WIND       PRES   REMARKS
LA CROSSE      NOT AVBL
PRAIRIE DU CHI CLOUDY    74  71  91 CALM      29.83R
BOSCOBEL       MOCLDY    75  71  87 NW3       29.83S
LONE ROCK      CLOUDY    75  72  90 CALM      29.83R
PLATTEVILLE    CLOUDY    74  74  99 S9        29.84F
FORT MC COY    CLOUDY    67  66  98 CALM      29.87R
MAUSTON-NEW LI CLOUDY    73  71  91 NW7       29.86R
VIROQUA        FAIR      68  67  96 NW5       29.88R
WIS DELLS      NOT AVBL
$$

...ELSEWHERE IN WISCONSIN...


CITY           SKY/WX    TMP DP  RH WIND       PRES   REMARKS
MILWAUKEE      CLOUDY    77  69  76 S3        29.85R
MADISON        TSTM      75  68  78 S9        29.83R
GREEN BAY      TSTM      73  73 100 SW5       29.89R FOG
EAU CLAIRE     CLEAR     61  55  81 NW5       29.87R
BLACK RVR FLS  CLOUDY    70  62  76 CALM      29.86S
MEDFORD        MOCLDY    58  58  97 CALM      29.89R
WAUSAU         CLOUDY    69  66  90 NW7       29.86S
WIS RAPIDS     CLOUDY    70  68  93 N7        29.88R
MARSHFIELD     CLOUDY    69  63  81 N7        29.87S
RICE LAKE      CLEAR     60  53  78 CALM      29.90R
$$

...NORTHEAST IOWA...


CITY           SKY/WX    TMP DP  RH WIND       PRES   REMARKS
WATERLOO       CLEAR     67  63  87 N3        29.85R
DUBUQUE        CLOUDY    72  68  87 S12G22    29.86R
DECORAH        PTCLDY    68  63  83 CALM      29.87R
MASON CITY     CLEAR     58  52  80 N6        29.90R
CHARLES CITY   CLEAR     64  57  77 N6        29.88R
OELWEIN        CLEAR     70  66  88 N7        29.86R
$$

...ELSEWHERE IN IOWA...


CITY           SKY/WX    TMP DP  RH WIND       PRES   REMARKS
DES MOINES     PTCLDY    77  60  55 N7        29.84R
IOWA CITY      MOCLDY    84  71  65 N5        29.84R
FORT DODGE     CLEAR     59  56  89 CALM      29.89R
MARSHALLTOWN   PTCLDY    69  64  84 N7        29.85R
CEDAR RAPIDS   MOCLDY    77  70  79 W3        29.82R
$$

...NORTHERN ILLINOIS...


CITY           SKY/WX    TMP DP  RH WIND       PRES   REMARKS
CHICAGO-OHARE  PTCLDY    83  66  56 S12       29.86R
CHICAGO-MIDWAY PTCLDY    86  67  52 S12       29.87R
MOLINE         TSTM      70  66  87 W30G47    29.88R VSB 1/2
ROCKFORD       CLOUDY    78  66  66 S9        29.87R
PEORIA         CLEAR     82  69  64 S8        29.88R
$$

NOTE: "FAIR" INDICATES FEW OR NO CLOUDS BELOW 12,000 FEET WITH NO
SIGNIFICANT WEATHER AND/OR OBSTRUCTIONS TO VISIBILITY. WIND
SPEEDS ARE IN MILES-PER-HOUR.




USA.gov is the U.S. government's official web portal to all federal, state and local government web resources and services.